This is the latest recevied weather packets stored in our database for station/object SP3SWJ-13. If no packets are shown the sender has not sent any weather packets the latest 10 day(s).
| Time | Temp. | Humidity | Pressure | Rain* | Wind** | Luminosity | Snow |
|---|---|---|---|---|---|---|---|
| 1777461509 | 10° C | 32% | 1020.5 hPa | - | - | 276 W/m² | - |
| 1777461208 | 10° C | 32% | 1020.7 hPa | - | - | 520 W/m² | - |
| 1777460907 | 10° C | 32% | 1020.7 hPa | - | - | 286 W/m² | - |
| 1777460606 | 10° C | 33% | 1020.7 hPa | - | - | 148 W/m² | - |
| 1777460305 | 9.44° C | 32% | 1020.7 hPa | - | - | 125 W/m² | - |
| 1777460004 | 10° C | 32% | 1020.7 hPa | - | - | 97 W/m² | - |
| 1777459704 | 10° C | 32% | 1020.5 hPa | - | - | 113 W/m² | - |
| 1777459403 | 10.56° C | 31% | 1020.6 hPa | - | - | 184 W/m² | - |
| 1777459102 | 10° C | 31% | 1020.6 hPa | - | - | 485 W/m² | - |
| 1777458801 | 10° C | 32% | 1020.7 hPa | - | - | 796 W/m² | - |
| 1777458500 | 10.56° C | 31% | 1020.8 hPa | - | - | 152 W/m² | - |
| 1777458199 | 10.56° C | 31% | 1020.7 hPa | - | - | 138 W/m² | - |
| 1777457898 | 10° C | 31% | 1020.7 hPa | - | - | 721 W/m² | - |
| 1777457597 | 9.44° C | 31% | 1020.8 hPa | - | - | 161 W/m² | - |
| 1777457296 | 10° C | 31% | 1020.7 hPa | - | - | 121 W/m² | - |
| 1777456995 | 10° C | 30% | 1020.7 hPa | - | - | 533 W/m² | - |
| 1777456693 | 10° C | 30% | 1020.7 hPa | - | - | 369 W/m² | - |
| 1777456393 | 10° C | 30% | 1020.8 hPa | - | - | 196 W/m² | - |
| 1777456092 | 9.44° C | 30% | 1020.7 hPa | - | - | 247 W/m² | - |
| 1777455791 | 9.44° C | 30% | 1020.8 hPa | - | - | 358 W/m² | - |
| 1777455490 | 10° C | 30% | 1020.7 hPa | - | - | 196 W/m² | - |
| 1777455189 | 10° C | 30% | 1020.6 hPa | - | - | 173 W/m² | - |
| 1777454888 | 10° C | 30% | 1020.6 hPa | - | - | 161 W/m² | - |
| 1777454587 | 9.44° C | 31% | 1020.6 hPa | - | - | 717 W/m² | - |
| 1777454286 | 9.44° C | 30% | 1020.6 hPa | - | - | 691 W/m² | - |
* Rain since midnight (hover to see other rain measurements)
** Current wind speed in m/s (hover to see current wind gust speed)